Zurück zum Katalog

FENGYUN 1C DEB

AktivSSO
NORAD 30471·DEBRIS·🇨🇳 China

Gestartet May 10, 1999 von Taiyuan Satellite Launch Center

Loading…

Nächste Überflüge (nächste 24 Stunden)

TLE

AktuellSource: Space-Track

Epoche: Sep 14, 2026, 05:35 UTC

1 30471U 99025AGJ 26257.23331162  .00001760  00000-0  90288-3 0  9997
2 30471  99.0505 353.4858 0081500 195.8308 193.2398 14.15046958  3279

Verfolge FENGYUN 1C DEB in Echtzeit mit AllMySat

Download on the App Store